Satellite: RS-30
Catalog number: 32953
Epoch time:      11230.68727641
Element set:       6
Inclination:      082.5050 deg
RA of node:       123.8788 deg
Eccentricity:    0.0017693
Arg of perigee:   251.5350 deg
Mean anomaly:     108.3808 deg
Mean motion:   12.43014418 rev/day
Decay rate:        1.0e-07 rev/day^2
Epoch rev:           14685
Checksum:              275

Satellite: TACSAT-3
Catalog number: 35001
Epoch time:      11230.81534807
Element set:     671
Inclination:      040.4534 deg
RA of node:       151.9102 deg
Eccentricity:    0.0022527
Arg of perigee:   316.0200 deg
Mean anomaly:     043.8827 deg
Mean motion:   15.50733619 rev/day
Decay rate:     1.4104e-04 rev/day^2
Epoch rev:           12680
Checksum:              245

Satellite: PHARMSAT
Catalog number: 35002
Epoch time:      11229.96789205
Element set:    0626
Inclination:      040.4691 deg
RA of node:       155.2346 deg
Eccentricity:    0.0024304
Arg of perigee:   317.6438 deg
Mean anomaly:     042.2519 deg
Mean motion:   15.49986436 rev/day
Decay rate:     1.0371e-04 rev/day^2
Epoch rev:           12669
Checksum:              301

Satellite: HAWKSAT1
Catalog number: 35003
Epoch time:      11229.92207572
Element set:    0727
Inclination:      040.4485 deg
RA of node:       114.7752 deg
Eccentricity:    0.0017999
Arg of perigee:   327.5695 deg
Mean anomaly:     032.4106 deg
Mean motion:   15.74765462 rev/day
Decay rate:    1.00234e-03 rev/day^2
Epoch rev:           12713
Checksum:              294

Satellite: CP6
Catalog number: 35004
Epoch time:      11230.84058257
Element set:     735
Inclination:      040.4479 deg
RA of node:       093.7447 deg
Eccentricity:    0.0016327
Arg of perigee:   319.6094 deg
Mean anomaly:     040.3527 deg
Mean motion:   15.93182378 rev/day
Decay rate:    3.32918e-03 rev/day^2
Epoch rev:           12743
Checksum:              309

Satellite: METEOR-M
Catalog number: 35865
Epoch time:      11230.71134903
Element set:     648
Inclination:      098.7019 deg
RA of node:       285.0135 deg
Eccentricity:    0.0002160
Arg of perigee:   189.6792 deg
Mean anomaly:     170.4344 deg
Mean motion:   14.21841232 rev/day
Decay rate:       1.76e-06 rev/day^2
Epoch rev:            9947
Checksum:              293

Satellite: RS-38
Catalog number: 35869
Epoch time:      11230.21113401
Element set:     633
Inclination:      098.6970 deg
RA of node:       284.5512 deg
Eccentricity:    0.0004319
Arg of perigee:   202.5903 deg
Mean anomaly:     157.5074 deg
Mean motion:   14.22018850 rev/day
Decay rate:       1.77e-06 rev/day^2
Epoch rev:            9941
Checksum:              286

Satellite: ARISSAT1
Catalog number: 37772
Epoch time:      11230.78515973
Element set:      45
Inclination:      051.6391 deg
RA of node:       205.6265 deg
Eccentricity:    0.0013359
Arg of perigee:   095.0809 deg
Mean anomaly:     332.3458 deg
Mean motion:   15.61165345 rev/day
Decay rate:     2.4582e-04 rev/day^2
Epoch rev:             226
Checksum:              294

/EX


_______________________________________________
Via the Keps mailing list courtesy of AMSAT-NA
http://amsat.org/mailman/listinfo/keps

--- ViaMAIL!/WC v1.60d
 * Origin: Chowdanet (401-724-4410) telnet://chowdanet.com  (1:323/120)